Location: Anumalkud?ru
(16.4847°N, 80.6636°E)
Time: 23:19:47
(UTC+00:00)

ARIANE 6 FM1 Upper Stage - Pass Details

Date: 11 April 2026
Orbit: 526 x 602 km, 62.0° (Epoch: 9 May)

Event Time Altitude Azimuth Distance (km) Brightness Sun altitude
Rises 23:33:16 0° 328° (NNW) 2,655 5.9 -12.9°
Reaches altitude 10° 23:35:28 10° 324° (NW) 1,771 5.0 -12.4°
Maximum altitude 23:39:22 58° 245° (WSW) 626 2.6 -11.5°
Drops below altitude 10° 23:43:21 10° 166° (SSE) 1,802 5.3 -10.5°
Sets 23:45:36 0° 162° (SSE) 2,706 6.2 -10.0°
